User: anonymous   Login
Location: Unspecified
(0.0000°N, 0.0000°E)
Time: 18:51:11
(UTC+00:00)
Language:

Resurs 1-4 - Orbit

View from above orbital plane
View from above orbital plane
View from above satellite
View from above satellite

Ground track
Ground track

The orbit data is extracted from the following two-line orbital elements,

1 25394U 98043A   17145.44736675 -.00000068 +00000-0 -10727-4 0  9994
2 25394 098.5585 089.7031 0001993 042.5260 317.6073 14.24460118981099
Epoch (UTC): 25 May 2017 10:44:12
Eccentricity: 0.0001993
inclination: 98.5585°
perigee height: 809 km
apogee height: 812 km
right ascension of ascending node: 89.7031°
argument of perigee: 42.5260°
revolutions per day: 14.24460118
mean anomaly at epoch: 317.6073°
orbit number at epoch: 98109

The dashed part of the orbit path shows where the satellite is in the earth's shadow,  

DLR